Tracking 35280 objects as of 7-Sep-2026
HD Live streaming from Space Station
objects crossing your sky now

STARLINK-3458

Track STARLINK-3458 now!
10-day predictions
STARLINK-3458 is classified as:


NORAD ID: 51758
Int'l Code: 2022-016AW
Launch date: February 21, 2022
Source: United States (US)
Launch site: AIR FORCE EASTERN TEST RANGE (AFETR)
Your satellite tracking list
Your tracking list is empty




NASA's NSSDC Master Catalog

Two Line Element Set (TLE):
1 51758U 22016AW  26249.30343159  .00000654  00000-0  29653-4 0  9992
2 51758  53.1596 205.9103 0001169  84.4548 275.6589 15.35403309252281
Source of the keplerian elements: AFSPC